Location: Trois-Rivi�res
(46.3500°N, 72.5500°W)
Time: 00:03:31
(UTC-04:00)

ISS - Pass Details

Date: 07 October 2017
Orbit: 401 x 408 km, 51.6° (Epoch: 18 October)

Event Time Altitude Azimuth Distance (km) Brightness Sun altitude
Rises 19:05:10 0° 288° (WNW) 2,324 1.7 -8.9°
Reaches altitude 10° 19:07:24 10° 299° (WNW) 1,466 0.1 -9.3°
Maximum altitude 19:10:23 31° 5° (N) 733 -2.6 -9.8°
Enters shadow 19:12:53 13° 66° (ENE) 1,288 -1.8 -10.3°
